Location: Baia Mare
(47.6567°N, 23.5850°E)
Time: 14:00:38
(UTC+03:00)

ISS - Pass Details

Date: 12 July 2019
Orbit: 409 x 418 km, 51.6° (Epoch: 21 July)

Event Time Altitude Azimuth Distance (km) Brightness Sun altitude
Exits shadow 02:39:15 27° 276° (W) 824 -2.4 -18.6°
Maximum altitude 02:40:47 56° 344° (NNW) 495 -3.2 -18.6°
Drops below altitude 10° 02:44:04 10° 64° (ENE) 1,480 -0.4 -18.4°
Sets 02:46:11 0° 69° (ENE) 2,342 0.6 -18.3°
